sat.trackr.live / text

‹ back to catalog

STARLINK-36187

NORAD 68613 · 2026-073M

PAYLOAD ACTIVE UNKNOWN

§ Identity

Operator
Country
US
Launch date
2026-04-07
Launch site
AFWTR
Launch vehicle
Mass (kg)
RCS (m²)

Purposes: comms

External: N2YO · Heavens-Above · Gunter

§ Orbital elements

Epoch: 2026-09-19T20:05:05.878176Z

Period
93.91 min
Inclination
97.2866°
Eccentricity
0.0000514
Mean motion
15.33456000 rev/d
Perigee alt
465.2 km
Apogee alt
465.9 km
Semi-major
6,843.6 km
B*
4.0422e-4
RAAN
100.9322°
Arg perigee
69.0974°
Mean anomaly
291.0324°
Rev number
2,564

§ Raw data

STARLINK-361871 68613U 26073M   26262.83687359  .00013001  00000+0  40422-3 0  99982 68613  97.2866 100.9322 0000514  69.0974 291.0324 15.33456000 25641

JSON: /api/v1/satellites/68613 · /tle

For live sub-satellite position, see the globe view (requires WebGL).

§ Visibility from observer

Set your observer location to see the next 7 days of passes ≥ 10°. The values pass through the URL so the page stays shareable.

No JS? Fill the form by hand. The geolocation button needs JavaScript.